SCP
0 0 0 0 0 0 0 0 0 0 0 0 0 0 0 0 0 0 0 0 0 0 0 0 0 0 0 0 0 0 0 0
0 0 0 0 0 0 0 0 0 0 -0 0 0 0 0 0 0 0 0 0 0 0 0 0 0 0 0 0 0 0 0 0
0 0 0 0 0 0 0 0 0 0 0 -0 -0 0 -0 0 0 0 0 0 0 0 0 0 0 0 0 0 0 0 0 0
0 0 0 0 0 0 0 0 0 0 0 0 -0 -0 0 0 0 0 0 0 0 0 0 0 0 0 0 0 0 0 0 0
0 0 0 0 0 0 0 0 0 0 0 0 0 0 -0 0 -0 0 0 0 0 0 0 0 0 0 0 0 0 0 0 0
0 0 0 0 0 0 0 0 0 0 0 0 0 0 0 0 -0 -0 0 0 0 0 0 0 0 0 0 0 0 0 0 0
0 0 0 0 0 0 0 0 0 0 0 0 0 0 0 -0 -0 -0 -0 -0 -0 -0 0 0 0 0 0 0 0 0 0 0
0 0 0 0 0 0 0 0 0 0 0 0 0 -0 -0 -0 0 -0 -0 -0 -0 -0 -0 -0 0 -0 0 0 0 0 0 0
0 0 0 0 0 0 0 0 0 0 0 0 0 0 0 -0 -0 0 0 -0 -0 -0 -0 -0 0 -0 -0 -0 0 0 0 0
0 0 0 0 0 0 0 0 0 0 0 0 0 0 0 0 0 0 -0 -0 -0 -0 -0 -0 0 0 0 0 0 0 0 0
0 0 0 0 0 0 0 0 0 0 0 0 0 0 0 0 0 0 -0 -0 0 0 0 0 0 0 0 0 0 0 0 0
0 0 0 0 0 0 0 0 0 0 0 0 0 0 0 0 0 0 0 0 -0 -0 -0 0 0 -0 -0 -0 -0 0 0 0
0 0 0 0 0 0 -0 0 0 0 0 0 0 0 0 0 0 0 0 0 -0 -0 -0 -0 -0 0 0 0 0 -0 -0 -0
0 0 0 0 0 0 0 0 0 0 0 0 0 0 0 0 0 0 0 0 0 0 -0 -0 0 0 -0 -0 -0 0 0 0
0 0 0 0 0 0 0 0 0 0 0 0 0 0 0 0 0 0 0 0 0 0 0 0 0 0 0 0 0 0 0 0
0 0 0 0 0 0 0 0 0 0 0 0 0 0 0 0 0 0 0 0 0 0 0 0 0 0 0 0 0 0 0 0
0 0 0 0 0 0 0 0 0 0 0 0 0 0 0 0 0 0 0 0 0 0 0 0 0 0 0 0 0 0 0 0
0 0 0 0 0 0 0 0 0 0 0 0 0 0 0 0 0 0 0 0 0 0 0 0 0 0 0 0 0 0 0 0
0 0 0 0 0 0 0 0 0 0 0 0 0 0 0 0 0 0 0 0 0 0 0 0 0 0 0 0 0 0 0 0
0 0 0 0 0 0 0 0 0 0 0 0 0 0 0 0 0 0 0 0 0 0 0 0 0 0 0 0 0 0 0 0
Wind_Speed_500mb
13 12 13 12 13 15 16 15 14 14 11 10 10 9 5 6 10 15 19 22 20 19 12 16 29 45 46 50 40 39 40 24
13 12 11 12 13 13 13 14 12 12 13 11 12 8 5 5 8 14 17 22 23 24 22 16 14 12 16 22 24 23 16 19
8 9 9 11 12 14 13 15 10 13 14 14 14 14 10 7 6 8 16 22 22 19 21 23 19 14 17 17 15 24 29 29
7 5 7 8 12 13 12 12 9 12 13 15 16 16 15 11 7 5 7 16 20 24 25 20 19 22 22 23 26 30 23 21
6 4 4 6 9 9 10 11 9 12 16 20 20 19 19 17 15 12 8 14 17 19 22 23 23 20 18 19 19 21 17 15
6 4 3 3 6 7 6 9 8 8 13 17 17 20 21 21 23 22 20 18 16 14 18 19 16 13 17 14 14 12 13 10
10 5 1 3 6 7 8 12 10 4 8 13 16 19 21 24 26 23 22 22 20 20 19 15 12 14 15 14 11 14 15 10
10 7 4 3 7 12 16 20 12 2 6 8 12 17 21 24 24 20 21 20 17 15 20 17 16 12 13 8 7 10 10 9
14 12 9 9 10 17 20 16 9 5 6 10 7 10 13 17 18 18 16 13 12 13 13 11 9 7 9 13 15 10 8 7
22 17 14 13 13 14 14 13 10 5 5 7 5 4 4 8 10 12 16 15 11 11 11 11 12 12 11 10 12 10 9 10
27 21 18 18 16 15 14 11 10 8 4 5 6 4 6 7 6 4 5 10 14 13 10 10 9 10 6 10 11 15 13 11
26 22 19 19 18 16 15 13 12 10 7 4 4 4 4 5 8 12 12 11 10 14 14 12 12 14 13 14 15 14 13 13
25 23 21 21 20 19 15 16 15 14 12 9 7 7 6 6 6 9 18 19 15 17 17 17 17 19 19 18 18 18 17 18
23 23 23 24 23 20 16 18 17 17 16 15 13 11 11 12 13 14 14 20 22 21 22 22 23 22 22 20 20 19 19 20
28 29 27 27 26 21 26 24 23 22 22 22 21 19 18 17 17 17 19 20 21 23 24 25 25 23 22 23 24 23 23 24
31 31 29 31 31 31 34 34 30 29 29 29 28 27 26 25 23 22 22 23 25 27 27 26 27 26 29 30 29 29 29 31
33 34 34 37 38 37 39 42 41 39 38 37 35 33 33 33 32 30 28 28 27 28 30 29 29 30 32 33 35 37 40 39
36 33 36 38 41 44 43 43 45 46 44 44 46 47 45 43 41 39 37 38 36 34 33 32 32 33 33 36 39 43 48 48
47 45 43 44 44 44 43 46 45 45 47 48 51 54 54 55 53 50 49 50 46 41 39 39 40 40 41 45 48 53 56 55
53 50 46 48 41 42 43 45 47 47 50 52 55 57 57 59 61 62 62 62 59 54 52 52 48 45 51 55 60 61 62 60
Wind_Direction_500mb
288 285 316 344 358 12 13 5 7 17 26 13 353 337 320 267 238 225 226 225 190 197 182 170 191 213 227 238 243 269 244 230
284 291 311 336 356 15 21 8 11 22 24 21 26 12 336 302 253 229 222 229 213 195 198 198 188 166 211 202 206 215 245 266
295 293 316 341 357 3 24 16 39 35 34 38 34 33 17 352 324 264 226 211 216 211 206 195 195 197 213 233 223 243 226 240
323 307 312 332 358 4 19 37 80 46 39 48 45 41 36 29 18 348 237 201 198 193 196 192 194 203 203 214 224 234 227 232
292 298 312 335 358 13 20 39 56 37 42 48 50 50 54 58 61 72 100 154 168 176 184 182 184 194 205 217 220 223 217 219
262 283 309 352 13 17 50 81 92 41 57 65 64 61 62 66 77 86 98 115 127 137 162 169 171 175 180 204 201 194 187 186
244 248 293 23 37 51 98 111 135 110 80 72 71 75 80 75 76 83 98 115 122 133 138 143 162 186 151 133 153 186 168 173
240 241 189 121 76 89 115 131 143 89 50 36 52 60 69 80 82 87 94 101 114 120 131 145 148 146 148 162 189 182 188 221
228 231 205 171 137 126 129 131 128 110 32 31 40 50 63 93 97 98 101 103 112 134 135 142 146 152 164 174 171 182 192 210
221 220 215 196 173 164 161 150 142 114 53 43 52 164 112 91 111 123 130 133 143 167 171 164 157 166 195 214 200 214 239 249
209 212 213 208 196 189 188 186 170 154 116 75 72 84 184 182 178 150 161 145 148 154 159 169 190 236 257 241 224 227 237 252
202 208 209 215 215 210 209 201 205 205 196 169 120 113 118 181 204 213 210 203 182 161 164 185 202 216 224 235 239 240 228 233
201 209 216 218 220 219 217 220 219 222 219 222 217 195 175 180 208 212 216 221 218 216 217 220 219 223 232 237 235 237 233 234
208 215 220 226 227 227 212 231 236 239 238 236 229 225 219 210 200 208 222 223 227 232 238 244 247 257 248 240 236 236 240 236
222 226 230 234 238 231 226 230 231 235 241 246 246 241 237 235 235 226 221 226 234 242 245 243 241 242 247 243 245 248 248 240
241 243 238 242 243 240 239 244 243 243 243 247 249 252 252 251 246 243 240 237 237 237 242 246 250 251 250 247 245 243 240 240
250 251 247 243 248 245 244 250 254 253 252 254 256 255 256 255 254 253 251 250 250 249 247 243 246 251 253 252 250 249 246 243
258 264 259 254 253 253 251 250 256 261 263 261 259 257 256 256 258 258 255 253 251 250 248 248 248 244 248 249 249 249 252 252
268 263 257 253 252 261 258 256 256 259 263 263 263 262 261 260 258 257 257 260 259 255 254 250 246 244 239 239 244 245 249 252
264 254 257 264 262 256 261 261 262 262 266 268 267 266 265 263 261 258 255 254 257 257 255 254 252 249 246 246 249 250 250 251
Wind_Speed_850mb
13 12 13 12 13 15 16 15 14 14 11 10 10 9 5 6 10 15 19 22 20 19 12 16 29 45 46 50 40 39 40 24
13 12 11 12 13 13 13 14 12 12 13 11 12 8 5 5 8 14 17 22 23 24 22 16 14 12 16 22 24 23 16 19
8 9 9 11 12 14 13 15 10 13 14 14 14 14 10 7 6 8 16 22 22 19 21 23 19 14 17 17 15 24 29 29
7 5 7 8 12 13 12 12 9 12 13 15 16 16 15 11 7 5 7 16 20 24 25 20 19 22 22 23 26 30 23 21
6 4 4 6 9 9 10 11 9 12 16 20 20 19 19 17 15 12 8 14 17 19 22 23 23 20 18 19 19 21 17 15
6 4 3 3 6 7 6 9 8 8 13 17 17 20 21 21 23 22 20 18 16 14 18 19 16 13 17 14 14 12 13 10
10 5 1 3 6 7 8 12 10 4 8 13 16 19 21 24 26 23 22 22 20 20 19 15 12 14 15 14 11 14 15 10
10 7 4 3 7 12 16 20 12 2 6 8 12 17 21 24 24 20 21 20 17 15 20 17 16 12 13 8 7 10 10 9
14 12 9 9 10 17 20 16 9 5 6 10 7 10 13 17 18 18 16 13 12 13 13 11 9 7 9 13 15 10 8 7
22 17 14 13 13 14 14 13 10 5 5 7 5 4 4 8 10 12 16 15 11 11 11 11 12 12 11 10 12 10 9 10
27 21 18 18 16 15 14 11 10 8 4 5 6 4 6 7 6 4 5 10 14 13 10 10 9 10 6 10 11 15 13 11
26 22 19 19 18 16 15 13 12 10 7 4 4 4 4 5 8 12 12 11 10 14 14 12 12 14 13 14 15 14 13 13
25 23 21 21 20 19 15 16 15 14 12 9 7 7 6 6 6 9 18 19 15 17 17 17 17 19 19 18 18 18 17 18
23 23 23 24 23 20 16 18 17 17 16 15 13 11 11 12 13 14 14 20 22 21 22 22 23 22 22 20 20 19 19 20
28 29 27 27 26 21 26 24 23 22 22 22 21 19 18 17 17 17 19 20 21 23 24 25 25 23 22 23 24 23 23 24
31 31 29 31 31 31 34 34 30 29 29 29 28 27 26 25 23 22 22 23 25 27 27 26 27 26 29 30 29 29 29 31
33 34 34 37 38 37 39 42 41 39 38 37 35 33 33 33 32 30 28 28 27 28 30 29 29 30 32 33 35 37 40 39
36 33 36 38 41 44 43 43 45 46 44 44 46 47 45 43 41 39 37 38 36 34 33 32 32 33 33 36 39 43 48 48
47 45 43 44 44 44 43 46 45 45 47 48 51 54 54 55 53 50 49 50 46 41 39 39 40 40 41 45 48 53 56 55
53 50 46 48 41 42 43 45 47 47 50 52 55 57 57 59 61 62 62 62 59 54 52 52 48 45 51 55 60 61 62 60
Wind_Direction_850mb
288 285 316 344 358 12 13 5 7 17 26 13 353 337 320 267 238 225 226 225 190 197 182 170 191 213 227 238 243 269 244 230
284 291 311 336 356 15 21 8 11 22 24 21 26 12 336 302 253 229 222 229 213 195 198 198 188 166 211 202 206 215 245 266
295 293 316 341 357 3 24 16 39 35 34 38 34 33 17 352 324 264 226 211 216 211 206 195 195 197 213 233 223 243 226 240
323 307 312 332 358 4 19 37 80 46 39 48 45 41 36 29 18 348 237 201 198 193 196 192 194 203 203 214 224 234 227 232
292 298 312 335 358 13 20 39 56 37 42 48 50 50 54 58 61 72 100 154 168 176 184 182 184 194 205 217 220 223 217 219
262 283 309 352 13 17 50 81 92 41 57 65 64 61 62 66 77 86 98 115 127 137 162 169 171 175 180 204 201 194 187 186
244 248 293 23 37 51 98 111 135 110 80 72 71 75 80 75 76 83 98 115 122 133 138 143 162 186 151 133 153 186 168 173
240 241 189 121 76 89 115 131 143 89 50 36 52 60 69 80 82 87 94 101 114 120 131 145 148 146 148 162 189 182 188 221
228 231 205 171 137 126 129 131 128 110 32 31 40 50 63 93 97 98 101 103 112 134 135 142 146 152 164 174 171 182 192 210
221 220 215 196 173 164 161 150 142 114 53 43 52 164 112 91 111 123 130 133 143 167 171 164 157 166 195 214 200 214 239 249
209 212 213 208 196 189 188 186 170 154 116 75 72 84 184 182 178 150 161 145 148 154 159 169 190 236 257 241 224 227 237 252
202 208 209 215 215 210 209 201 205 205 196 169 120 113 118 181 204 213 210 203 182 161 164 185 202 216 224 235 239 240 228 233
201 209 216 218 220 219 217 220 219 222 219 222 217 195 175 180 208 212 216 221 218 216 217 220 219 223 232 237 235 237 233 234
208 215 220 226 227 227 212 231 236 239 238 236 229 225 219 210 200 208 222 223 227 232 238 244 247 257 248 240 236 236 240 236
222 226 230 234 238 231 226 230 231 235 241 246 246 241 237 235 235 226 221 226 234 242 245 243 241 242 247 243 245 248 248 240
241 243 238 242 243 240 239 244 243 243 243 247 249 252 252 251 246 243 240 237 237 237 242 246 250 251 250 247 245 243 240 240
250 251 247 243 248 245 244 250 254 253 252 254 256 255 256 255 254 253 251 250 250 249 247 243 246 251 253 252 250 249 246 243
258 264 259 254 253 253 251 250 256 261 263 261 259 257 256 256 258 258 255 253 251 250 248 248 248 244 248 249 249 249 252 252
268 263 257 253 252 261 258 256 256 259 263 263 263 262 261 260 258 257 257 260 259 255 254 250 246 244 239 239 244 245 249 252
264 254 257 264 262 256 261 261 262 262 266 268 267 266 265 263 261 258 255 254 257 257 255 254 252 249 246 246 249 250 250 251